This is the latest recevied weather packets stored in our database for station/object KB1JLI. If no packets are shown the sender has not sent any weather packets the latest 10 day(s).
| Time | Temp. | Humidity | Pressure | Rain* | Wind** | Luminosity | Snow |
|---|---|---|---|---|---|---|---|
| 1777638887 | 10° C | 67% | 1009.6 hPa | 0 mm | - | 337 W/m² | - |
| 1777638583 | 10° C | 67% | 1009.7 hPa | 0 mm | - | 321 W/m² | - |
| 1777638280 | 9.44° C | 69% | 1009.6 hPa | 0 mm | - | 310 W/m² | - |
| 1777637976 | 9.44° C | 71% | 1009.4 hPa | 0 mm | - | 292 W/m² | - |
| 1777637672 | 8.89° C | 71% | 1009.7 hPa | 0 mm | - | 278 W/m² | - |
| 1777637370 | 9.44° C | 72% | 1009.6 hPa | 0 mm | - | 262 W/m² | - |
| 1777637066 | 8.89° C | 74% | 1009.7 hPa | 0 mm | - | 247 W/m² | - |
| 1777636762 | 8.89° C | 75% | 1009.5 hPa | 0 mm | - | 233 W/m² | - |
| 1777636458 | 8.89° C | 75% | 1009.6 hPa | 0 mm | - | 220 W/m² | - |
| 1777636154 | 8.89° C | 76% | 1009.5 hPa | 0 mm | - | 206 W/m² | - |
| 1777635849 | 8.33° C | 78% | 1009.4 hPa | 0 mm | - | 175 W/m² | - |
| 1777635546 | 8.33° C | 77% | 1009.5 hPa | 0 mm | - | 176 W/m² | - |
| 1777635242 | 7.78° C | 78% | 1009.5 hPa | 0 mm | - | 164 W/m² | - |
| 1777634939 | 7.78° C | 78% | 1009.4 hPa | 0 mm | - | 155 W/m² | - |
| 1777634636 | 7.78° C | 80% | 1009.3 hPa | 0 mm | - | 35 W/m² | - |
| 1777634334 | 7.22° C | 80% | 1009.3 hPa | 0 mm | - | 70 W/m² | - |
| 1777634030 | 7.22° C | 81% | 1009.3 hPa | 0 mm | - | 37 W/m² | - |
| 1777633727 | 6.67° C | 82% | 1009.2 hPa | 0 mm | - | 30 W/m² | - |
| 1777633425 | 6.67° C | 83% | 1009.2 hPa | 0 mm | - | 29 W/m² | - |
| 1777633122 | 6.67° C | 83% | 1009.1 hPa | 0 mm | - | 29 W/m² | - |
| 1777632818 | 6.67° C | 83% | 1009.3 hPa | 0 mm | - | 26 W/m² | - |
| 1777632514 | 6.67° C | 83% | 1009.3 hPa | 0 mm | - | 26 W/m² | - |
| 1777632212 | 6.67° C | 84% | 1009.4 hPa | 0 mm | - | 26 W/m² | - |
| 1777631909 | 6.67° C | 85% | 1009.2 hPa | 0 mm | - | 25 W/m² | - |
| 1777631607 | 6.11° C | 86% | 1009.1 hPa | 0 mm | - | 25 W/m² | - |
* Rain latest hour (hover to see other rain measurements)
** Current wind speed in m/s (hover to see current wind gust speed)